{"data":{"norad_id":59327,"epoch":"2026-05-25T04:55:15.581280Z","epoch_age_seconds":50568,"freshness":"FRESH","line1":"1 59327U 24057H   26145.20504145 -.00001762  00000+0 -54526-4 0  9996","line2":"2 59327  42.9997 114.7386 0001221 256.8343 103.2372 15.27584024121544","mean_motion":15.27584024,"eccentricity":0.0001221,"inclination_deg":42.9997,"raan_deg":114.7386,"arg_perigee_deg":256.8343,"mean_anomaly_deg":103.2372,"bstar":-5.4526e-5,"rev_number":12154,"period_min":94.266500393827,"perigee_km":482.19929741137,"apogee_km":483.87479611359,"semimajor_km":6861.1740467625,"source":"CELESTRAK","updated_at":"2026-05-25T13:38:18.904079Z"}}